Location: La Estación
(39.9833°N, 3.9500°W)
Time: 15:33:21
(UTC+00:00)

GP-B - Pass Details

Date: 14 June 2025
Orbit: 619 x 623 km, 89.8° (Epoch: 20 July)

Event Time Altitude Azimuth Distance (km) Brightness Sun altitude
Rises 22:54:05 0° 354° (N) 2,909 7.8 -23.9°
Reaches altitude 10° 22:56:23 10° 347° (NNW) 1,997 6.7 -24.0°
Maximum altitude 23:00:29 41° 278° (W) 908 4.0 -24.3°
Enters shadow 23:01:13 37° 252° (WSW) 961 4.0 -24.3°
